sat.trackr.live / text

‹ back to catalog

FENGYUN 2G

NORAD 40367 · 2014-090A

PAYLOAD ACTIVE UNKNOWN

§ Identity

Operator
Country
PRC
Launch date
2014-12-31
Launch site
XICLF
Launch vehicle
Mass (kg)
RCS (m²)
23.11

Purposes: comms, earth_obs

External: N2YO · Heavens-Above · Gunter

§ Orbital elements

Epoch: 2026-09-13T00:38:28.294368Z

Period
1,436.06 min
Inclination
5.8556°
Eccentricity
0.0003903
Mean motion
1.00274252 rev/d
Perigee alt
35,769.4 km
Apogee alt
35,802.4 km
Semi-major
42,164.0 km
B*
0.0000e+0
RAAN
71.7140°
Arg perigee
187.2491°
Mean anomaly
202.4240°
Rev number
4,288

§ Raw data

FENGYUN 2G1 40367U 14090A   26256.02671637 -.00000313  00000+0  00000+0 0  99932 40367   5.8556  71.7140 0003903 187.2491 202.4240  1.00274252 42887

JSON: /api/v1/satellites/40367 · /tle

For live sub-satellite position, see the globe view (requires WebGL).

§ Visibility from observer

Set your observer location to see the next 7 days of passes ≥ 10°. The values pass through the URL so the page stays shareable.

No JS? Fill the form by hand. The geolocation button needs JavaScript.